Weather History for KFTY - November, 2013

Change the Weather History Date:

Sunday, November 3, 2013

  Actual Average Record
Temperature  
Mean Temperature 54 °F 57 °F  
Max Temperature 66 °F 68 °F 82 °F (2003)
Min Temperature 41 °F 46 °F 30 °F (2014)
Degree Days  
Heating Degree Days 11 9  
Month to date heating degree days 18 26  
Since 1 July heating degree days 133 169  
Growing Degree Days 4 (Base 50)    
Moisture  
Dew Point 39 °F    
Average Humidity 62    
Maximum Humidity 92    
Minimum Humidity 31    
Precipitation  
Precipitation 0.00 in 0.10 in 0.93 in (1971)
Month to date precipitation 0.32 0.33  
Year to date precipitation 43.34  
Snow  
Snow 0.00 in - - ()
Month to date snowfall 0.0  
Since 1 July snowfall 0.0  
Since 1 September snowfall 0.0  
Snow Depth 0.00 in    
Sea Level Pressure  
Sea Level Pressure 30.19 in    
Wind  
Wind Speed 2 mph (North)    
Max Wind Speed 12 mph    
Max Gust Speed 15 mph    
Visibility 10 miles    
Events      
T = Trace of Precipitation, MM = Missing Value Source: NWS Daily Summary

Daily Weather History Graph

Daily Weather History Graph

Search for Another Location

Airport or City:

Trip Planner

Search our weather history database for the weather conditions in past years. The results will help you decide how hot, cold, wet, or windy it might be!

Date:

Astronomy

Nov. 03, 2013 Rise Set
Actual Time 6:59 AM EST 5:43 PM EST
Civil Twilight 6:33 AM EST 6:09 PM EST
Nautical Twilight 6:03 AM EST 6:39 PM EST
Astronomical Twilight 5:34 AM EST 7:08 PM EST
Moon 7:01 AM EST (11/3) 5:59 PM EST (11/3)
Length of Visible Light 11h 36m
Length of Day
10h 44m
New Moon, 0% of the Moon is Illuminated
Nov 3
New Moon
Nov 10
First Quarter
Nov 17
Full
Nov 25
Last Quarter
Dec 2
New

Hourly Weather History & Observations

Time (EST) Temp. Windchill Dew Point Humidity Pressure Visibility Wind Dir Wind Speed Gust Speed Precip Events Conditions
12:53 AM 50.0 °F - 39.0 °F 66% 30.07 in 10.0 mi NNW 5.8 mph - N/A   Clear
1:53 AM 48.9 °F - 39.0 °F 69% 30.08 in 10.0 mi Calm Calm - N/A   Clear
1:53 AM 48.0 °F - 39.0 °F 71% 30.09 in 10.0 mi Calm Calm - N/A   Clear
2:53 AM 46.9 °F - 39.0 °F 74% 30.09 in 10.0 mi Calm Calm - N/A   Clear
3:53 AM 45.0 °F 42.6 °F 39.9 °F 82% 30.11 in 10.0 mi WNW 4.6 mph - N/A   Clear
4:53 AM 45.0 °F 43.5 °F 39.9 °F 82% 30.13 in 10.0 mi Variable 3.5 mph - N/A   Clear
5:53 AM 45.0 °F - 39.9 °F 82% 30.16 in 10.0 mi Calm Calm - N/A   Clear
6:53 AM 43.0 °F - 39.9 °F 89% 30.19 in 10.0 mi Calm Calm - N/A   Clear
7:53 AM 45.0 °F - 41.0 °F 86% 30.21 in 10.0 mi Calm Calm - N/A   Clear
8:53 AM 50.0 °F - 42.1 °F 74% 30.23 in 10.0 mi Calm Calm - N/A   Clear
9:53 AM 54.0 °F - 42.1 °F 64% 30.24 in 10.0 mi WNW 5.8 mph - N/A   Clear
10:53 AM 57.9 °F - 39.9 °F 51% 30.25 in 10.0 mi Variable 4.6 mph - N/A   Clear
11:53 AM 61.0 °F - 34.0 °F 36% 30.24 in 10.0 mi NNE 5.8 mph - N/A   Clear
12:53 PM 63.0 °F - 35.1 °F 35% 30.21 in 10.0 mi NNE 6.9 mph - N/A   Clear
1:53 PM 64.0 °F - 34.0 °F 33% 30.18 in 10.0 mi NE 5.8 mph - N/A   Clear
2:53 PM 64.9 °F - 33.1 °F 31% 30.18 in 10.0 mi Variable 5.8 mph - N/A   Clear
3:53 PM 64.0 °F - 33.1 °F 31% 30.18 in 10.0 mi Calm Calm - N/A   Clear
4:53 PM 64.0 °F - 34.0 °F 33% 30.18 in 10.0 mi North 3.5 mph - N/A   Clear
5:53 PM 55.9 °F - 41.0 °F 57% 30.20 in 10.0 mi Calm Calm - N/A   Clear
6:53 PM 51.1 °F - 43.0 °F 74% 30.23 in 10.0 mi Calm Calm - N/A   Clear
7:53 PM 46.9 °F - 43.0 °F 86% 30.25 in 10.0 mi Calm Calm - N/A   Clear
8:53 PM 45.0 °F - 43.0 °F 93% 30.25 in 10.0 mi Calm Calm - N/A   Clear
9:53 PM 46.0 °F - 42.1 °F 86% 30.27 in 10.0 mi Calm Calm - N/A   Clear
10:53 PM 44.1 °F - 41.0 °F 89% 30.29 in 10.0 mi Calm Calm - N/A   Clear